TimeCST,TemperatureF,Dew PointF,Humidity,Sea Level PressureIn,VisibilityMPH,Wind Direction,Wind SpeedMPH,Gust SpeedMPH,PrecipitationIn,Events,Conditions,WindDirDegrees,DateUTC
12:15 AM,27.1,22.8,84,30.47,10.0,South,5.8,-,N/A,,Clear,170,2012-11-14 06:15:00
12:35 AM,28.0,23.7,84,30.47,10.0,South,4.6,-,N/A,,Clear,170,2012-11-14 06:35:00
12:55 AM,29.1,24.8,84,30.47,10.0,South,5.8,-,N/A,,Clear,170,2012-11-14 06:55:00
1:15 AM,29.3,25.3,85,30.46,10.0,SSE,5.8,-,N/A,,Clear,160,2012-11-14 07:15:00
1:35 AM,30.2,25.7,83,30.46,10.0,SSE,4.6,-,N/A,,Scattered Clouds,150,2012-11-14 07:35:00
1:55 AM,30.2,25.7,83,30.47,10.0,SSE,5.8,-,N/A,,Scattered Clouds,150,2012-11-14 07:55:00
2:15 AM,30.6,25.9,83,30.47,10.0,SSE,5.8,-,N/A,,Clear,160,2012-11-14 08:15:00
2:35 AM,31.1,26.6,83,30.47,10.0,South,5.8,-,N/A,,Clear,170,2012-11-14 08:35:00
2:55 AM,31.1,27.0,85,30.47,10.0,SSE,5.8,-,N/A,,Scattered Clouds,160,2012-11-14 08:55:00
3:15 AM,31.6,27.3,84,30.47,10.0,South,5.8,-,N/A,,Scattered Clouds,170,2012-11-14 09:15:00
3:35 AM,32.0,27.5,83,30.47,10.0,South,6.9,-,N/A,,Mostly Cloudy,170,2012-11-14 09:35:00
3:55 AM,32.0,27.5,83,30.47,10.0,SSE,6.9,-,N/A,,Overcast,160,2012-11-14 09:55:00
4:35 AM,31.8,27.5,84,30.47,10.0,SSE,6.9,-,N/A,,Mostly Cloudy,150,2012-11-14 10:35:00
4:55 AM,31.1,27.1,85,30.47,10.0,SSE,6.9,-,N/A,,Scattered Clouds,150,2012-11-14 10:55:00
5:15 AM,31.1,27.3,86,30.47,10.0,SSE,6.9,-,N/A,,Clear,150,2012-11-14 11:15:00
5:35 AM,30.7,26.6,85,30.47,10.0,SE,9.2,-,N/A,,Clear,140,2012-11-14 11:35:00
5:55 AM,30.2,26.4,86,30.47,10.0,SE,8.1,-,N/A,,Clear,140,2012-11-14 11:55:00
6:15 AM,30.4,26.6,86,30.47,10.0,SSE,9.2,-,N/A,,Mostly Cloudy,150,2012-11-14 12:15:00
6:35 AM,30.6,26.8,86,30.47,10.0,SE,8.1,-,N/A,,Overcast,140,2012-11-14 12:35:00
6:55 AM,30.4,26.6,86,30.47,10.0,SSE,6.9,-,N/A,,Mostly Cloudy,150,2012-11-14 12:55:00
7:15 AM,31.1,27.5,87,30.47,10.0,SSE,9.2,-,N/A,,Scattered Clouds,150,2012-11-14 13:15:00
7:55 AM,33.6,29.1,84,30.48,10.0,SSE,11.5,-,N/A,,Mostly Cloudy,160,2012-11-14 13:55:00
8:15 AM,33.8,29.1,83,30.48,10.0,South,10.4,-,N/A,,Scattered Clouds,170,2012-11-14 14:15:00
8:35 AM,33.8,29.3,84,30.49,10.0,SSE,10.4,-,N/A,,Clear,160,2012-11-14 14:35:00
8:55 AM,34.5,29.5,82,30.49,10.0,SSE,10.4,-,N/A,,Scattered Clouds,160,2012-11-14 14:55:00
9:15 AM,35.8,30.0,80,30.49,10.0,South,10.4,-,N/A,,Scattered Clouds,170,2012-11-14 15:15:00
9:35 AM,36.5,30.4,78,30.49,10.0,South,10.4,-,N/A,,Clear,170,2012-11-14 15:35:00
9:55 AM,37.8,31.1,77,30.49,10.0,South,9.2,-,N/A,,Clear,170,2012-11-14 15:55:00
10:15 AM,38.7,29.7,70,30.49,10.0,SSE,13.8,-,N/A,,Clear,160,2012-11-14 16:15:00
10:35 AM,39.7,28.6,64,30.48,10.0,South,13.8,-,N/A,,Clear,170,2012-11-14 16:35:00
11:15 AM,40.6,29.1,64,30.46,10.0,SSE,17.3,21.9,N/A,,Clear,160,2012-11-14 17:15:00
11:35 AM,41.9,28.8,60,30.45,10.0,SSE,17.3,-,N/A,,Clear,160,2012-11-14 17:35:00
11:55 AM,42.1,28.6,59,30.44,10.0,SSE,13.8,-,N/A,,Clear,150,2012-11-14 17:55:00
12:15 PM,42.8,28.9,58,30.44,10.0,SSE,17.3,-,N/A,,Clear,160,2012-11-14 18:15:00
12:35 PM,43.7,29.1,57,30.43,10.0,SSE,16.1,20.7,N/A,,Scattered Clouds,160,2012-11-14 18:35:00
12:55 PM,44.6,29.3,55,30.42,10.0,South,16.1,19.6,N/A,,Scattered Clouds,170,2012-11-14 18:55:00
1:15 PM,44.4,28.6,54,30.42,10.0,SSE,13.8,-,N/A,,Mostly Cloudy,160,2012-11-14 19:15:00
1:35 PM,45.5,29.1,53,30.41,10.0,South,13.8,-,N/A,,Overcast,170,2012-11-14 19:35:00
1:55 PM,45.1,28.6,52,30.41,10.0,SSE,11.5,-,N/A,,Scattered Clouds,160,2012-11-14 19:55:00
2:35 PM,45.1,28.9,53,30.40,10.0,South,12.7,-,N/A,,Clear,180,2012-11-14 20:35:00
2:55 PM,45.1,29.3,54,30.39,10.0,SSE,13.8,-,N/A,,Clear,160,2012-11-14 20:55:00
3:15 PM,44.6,29.1,55,30.39,10.0,SSE,11.5,-,N/A,,Clear,160,2012-11-14 21:15:00
3:35 PM,44.2,29.1,55,30.39,10.0,SSE,11.5,-,N/A,,Clear,160,2012-11-14 21:35:00
3:55 PM,43.2,29.5,59,30.39,10.0,SSE,10.4,-,N/A,,Clear,160,2012-11-14 21:55:00
4:15 PM,41.2,29.5,63,30.39,10.0,SSE,8.1,-,N/A,,Clear,160,2012-11-14 22:15:00
4:35 PM,40.1,29.5,66,30.38,10.0,SE,9.2,-,N/A,,Clear,140,2012-11-14 22:35:00
4:55 PM,38.8,29.8,70,30.39,10.0,SSE,8.1,-,N/A,,Clear,150,2012-11-14 22:55:00
5:15 PM,37.6,30.2,75,30.39,10.0,SE,9.2,-,N/A,,Clear,140,2012-11-14 23:15:00
5:35 PM,36.7,29.3,75,30.38,10.0,SE,9.2,-,N/A,,Clear,140,2012-11-14 23:35:00
5:55 PM,36.5,29.1,75,30.39,10.0,SSE,9.2,-,N/A,,Clear,150,2012-11-14 23:55:00
6:15 PM,35.6,29.1,77,30.39,10.0,SSE,9.2,-,N/A,,Clear,150,2012-11-15 00:15:00
6:35 PM,35.6,28.6,76,30.39,10.0,SSE,8.1,-,N/A,,Clear,150,2012-11-15 00:35:00
6:55 PM,35.6,28.8,76,30.38,10.0,SSE,8.1,-,N/A,,Clear,160,2012-11-15 00:55:00
7:15 PM,35.1,28.6,77,30.38,10.0,SSE,8.1,-,N/A,,Clear,150,2012-11-15 01:15:00
7:35 PM,34.2,28.2,79,30.39,10.0,SSE,9.2,-,N/A,,Clear,160,2012-11-15 01:35:00
7:55 PM,33.8,28.4,81,30.39,10.0,SSE,8.1,-,N/A,,Clear,160,2012-11-15 01:55:00
8:15 PM,33.6,28.2,81,30.38,10.0,SSE,9.2,-,N/A,,Clear,150,2012-11-15 02:15:00
8:35 PM,34.3,28.4,79,30.37,10.0,SSE,10.4,-,N/A,,Clear,150,2012-11-15 02:35:00
8:55 PM,35.1,28.8,78,30.37,10.0,SSE,10.4,-,N/A,,Clear,150,2012-11-15 02:55:00
9:15 PM,33.8,28.2,80,30.37,10.0,SSE,5.8,-,N/A,,Clear,160,2012-11-15 03:15:00
9:35 PM,32.7,27.9,82,30.37,10.0,SSE,6.9,-,N/A,,Clear,160,2012-11-15 03:35:00
10:15 PM,33.1,28.0,82,30.36,10.0,SSE,8.1,-,N/A,,Clear,160,2012-11-15 04:15:00
10:35 PM,32.9,28.0,82,30.36,10.0,SSE,8.1,-,N/A,,Clear,160,2012-11-15 04:35:00
10:55 PM,32.9,28.2,83,30.37,10.0,SSE,8.1,-,N/A,,Clear,160,2012-11-15 04:55:00
11:15 PM,32.5,28.4,85,30.37,10.0,SSE,8.1,-,N/A,,Clear,150,2012-11-15 05:15:00
11:35 PM,32.5,28.4,85,30.36,10.0,SSE,9.2,-,N/A,,Clear,150,2012-11-15 05:35:00
11:55 PM,32.5,28.4,85,30.36,10.0,SSE,9.2,-,N/A,,Clear,160,2012-11-15 05:55:00